AAL2797 KPHL-KSFO

Flight info

Callsign AAL2797
Flight time N/A
Altitude 32000
Route PTW SARAA RAV PSB J60 DJB ANNTS YOLUR OBK KP69G OVR/N0456F340 LNK AVVVS ELLFF Q136 MANRD KROST INYOE DYAMD5
Aircraft A321/M-SDE3FGHIRWY/LB1

Departure

Time 2026-05-04 14:33
Airport Philadelphia International Airport (KPHL)

Arrival

Time N/A
Airport San Francisco International Airport (KSFO)
Time Latitude Longitude Altitude Speed Heading
2026-05-04 13:30 39.87439 -75.24304 26 ft 0 kts 287°
2026-05-04 14:19 39.87433 -75.24280 30 ft 3 kts 287°
2026-05-04 14:20 39.87429 -75.24254 29 ft 4 kts 251°
2026-05-04 14:20 39.87442 -75.24239 28 ft 4 kts 171°
2026-05-04 14:20 39.87465 -75.24246 30 ft 2 kts 165°
2026-05-04 14:21 39.87467 -75.24247 30 ft 0 kts 165°
2026-05-04 14:25 39.87461 -75.24245 29 ft 3 kts 166°
2026-05-04 14:26 39.87436 -75.24240 27 ft 4 kts 172°
2026-05-04 14:26 39.87409 -75.24235 27 ft 4 kts 172°
2026-05-04 14:26 39.87380 -75.24231 27 ft 4 kts 172°
2026-05-04 14:26 39.87350 -75.24224 29 ft 5 kts 166°
2026-05-04 14:27 39.87319 -75.24207 27 ft 5 kts 154°
2026-05-04 14:27 39.87289 -75.24187 25 ft 5 kts 153°
2026-05-04 14:27 39.87256 -75.24165 27 ft 5 kts 153°
2026-05-04 14:27 39.87222 -75.24143 28 ft 6 kts 153°
2026-05-04 14:28 39.87181 -75.24115 27 ft 9 kts 153°
2026-05-04 14:28 39.87121 -75.24088 28 ft 8 kts 165°
2026-05-04 14:28 39.87069 -75.24070 29 ft 8 kts 164°
2026-05-04 14:28 39.87036 -75.24024 29 ft 7 kts 92°
2026-05-04 14:29 39.87059 -75.23890 31 ft 8 kts 77°
2026-05-04 14:29 39.87090 -75.23749 29 ft 8 kts 72°
2026-05-04 14:30 39.87107 -75.23675 27 ft 9 kts 76°
2026-05-04 14:30 39.87121 -75.23599 27 ft 9 kts 75°
2026-05-04 14:30 39.87112 -75.23465 25 ft 8 kts 159°
2026-05-04 14:31 39.87058 -75.23444 29 ft 8 kts 165°
2026-05-04 14:31 39.86948 -75.23407 28 ft 8 kts 165°
2026-05-04 14:32 39.86895 -75.23434 27 ft 1 kts 261°
2026-05-04 14:32 39.86894 -75.23436 26 ft 0 kts 258°
2026-05-04 14:32 39.86854 -75.23656 27 ft 59 kts 255°
2026-05-04 14:32 39.86696 -75.24436 28 ft 117 kts 255°
2026-05-04 14:33 39.86447 -75.25674 28 ft 165 kts 255°
2026-05-04 14:33 39.86153 -75.27174 565 ft 169 kts 254°
2026-05-04 14:33 39.85862 -75.28652 1292 ft 167 kts 252°
2026-05-04 14:33 39.85563 -75.30114 1719 ft 169 kts 251°
2026-05-04 14:34 39.85237 -75.31676 1856 ft 189 kts 253°
2026-05-04 14:34 39.85136 -75.33460 1979 ft 213 kts 279°
2026-05-04 14:34 39.85967 -75.35186 2109 ft 246 kts 319°
2026-05-04 14:34 39.87501 -75.36331 2568 ft 259 kts 329°
2026-05-04 14:35 39.89152 -75.37292 3243 ft 261 kts 332°
2026-05-04 14:35 39.90842 -75.38204 3892 ft 265 kts 332°
2026-05-04 14:35 39.92560 -75.39120 4700 ft 268 kts 332°
2026-05-04 14:35 39.94281 -75.40050 5410 ft 268 kts 332°
2026-05-04 14:36 39.96004 -75.40999 6051 ft 270 kts 332°
2026-05-04 14:36 39.97739 -75.41967 6656 ft 272 kts 332°
2026-05-04 14:36 39.99480 -75.42948 7318 ft 272 kts 332°
2026-05-04 14:36 40.01209 -75.43933 7990 ft 271 kts 332°
2026-05-04 14:37 40.02939 -75.44926 8605 ft 272 kts 332°
2026-05-04 14:37 40.04676 -75.45924 9220 ft 274 kts 332°
2026-05-04 14:37 40.06421 -75.46929 9823 ft 275 kts 332°
2026-05-04 14:37 40.08187 -75.47945 10286 ft 282 kts 332°
2026-05-04 14:38 40.10039 -75.49017 10393 ft 300 kts 332°
2026-05-04 14:38 40.12000 -75.50154 10520 ft 317 kts 333°
2026-05-04 14:38 40.14071 -75.51350 10651 ft 333 kts 333°
2026-05-04 14:38 40.16246 -75.52604 10769 ft 349 kts 333°
2026-05-04 14:39 40.18515 -75.53910 10913 ft 363 kts 333°
2026-05-04 14:39 40.20806 -75.55354 11276 ft 367 kts 327°
2026-05-04 14:39 40.22887 -75.57288 11787 ft 367 kts 316°
2026-05-04 14:40 40.26355 -75.62207 12849 ft 370 kts 309°
2026-05-04 14:40 40.28046 -75.64755 13377 ft 372 kts 309°
2026-05-04 14:40 40.29746 -75.67319 13918 ft 374 kts 309°
2026-05-04 14:40 40.31458 -75.69902 14393 ft 376 kts 309°
2026-05-04 14:41 40.33179 -75.72497 14862 ft 379 kts 309°
2026-05-04 14:41 40.34887 -75.75079 15334 ft 381 kts 309°
2026-05-04 14:41 40.38398 -75.80393 16281 ft 385 kts 309°
2026-05-04 14:42 40.41902 -75.85743 17155 ft 388 kts 306°
2026-05-04 14:42 40.43369 -75.88720 17566 ft 389 kts 296°
2026-05-04 14:42 40.44388 -75.91956 17969 ft 390 kts 286°
2026-05-04 14:43 40.45011 -75.95426 18352 ft 392 kts 282°
2026-05-04 14:43 40.45576 -75.98938 18706 ft 394 kts 282°
2026-05-04 14:43 40.46153 -76.02465 19050 ft 396 kts 282°
2026-05-04 14:43 40.46737 -76.06012 19381 ft 398 kts 283°
2026-05-04 14:44 40.47319 -76.09572 19712 ft 401 kts 283°
2026-05-04 14:44 40.47903 -76.13163 20044 ft 403 kts 283°
2026-05-04 14:44 40.48484 -76.16769 20369 ft 405 kts 283°
2026-05-04 14:44 40.49067 -76.20407 20680 ft 408 kts 283°
2026-05-04 14:45 40.49652 -76.24061 20997 ft 410 kts 283°
2026-05-04 14:45 40.50241 -76.27733 21303 ft 412 kts 283°
2026-05-04 14:45 40.50831 -76.31427 21622 ft 414 kts 283°
2026-05-04 14:45 40.51425 -76.35141 21921 ft 416 kts 283°
2026-05-04 14:46 40.52023 -76.38873 22243 ft 418 kts 284°
2026-05-04 14:46 40.52622 -76.42627 22549 ft 420 kts 284°
2026-05-04 14:46 40.53219 -76.46395 22850 ft 423 kts 284°
2026-05-04 14:46 40.53814 -76.50186 23137 ft 424 kts 284°
2026-05-04 14:47 40.54409 -76.54000 23417 ft 426 kts 284°
2026-05-04 14:47 40.55006 -76.57825 23694 ft 428 kts 284°
2026-05-04 14:47 40.55778 -76.61597 23929 ft 428 kts 291°
2026-05-04 14:47 40.56781 -76.65288 24194 ft 429 kts 291°
2026-05-04 14:48 40.57778 -76.68988 24467 ft 430 kts 291°
2026-05-04 14:48 40.58770 -76.72708 24738 ft 432 kts 291°
2026-05-04 14:48 40.59763 -76.76443 25021 ft 432 kts 291°
2026-05-04 14:48 40.60752 -76.80171 25398 ft 431 kts 291°
2026-05-04 14:49 40.61419 -76.82684 25650 ft 430 kts 291°
2026-05-04 14:49 40.62399 -76.86395 26023 ft 429 kts 291°
2026-05-04 14:49 40.63375 -76.90096 26441 ft 426 kts 290°
2026-05-04 14:49 40.64346 -76.93774 26848 ft 424 kts 290°
2026-05-04 14:50 40.65311 -76.97437 27240 ft 423 kts 290°
2026-05-04 14:50 40.66273 -77.01088 27619 ft 421 kts 290°
2026-05-04 14:50 40.67229 -77.04728 27979 ft 420 kts 290°
2026-05-04 14:50 40.68182 -77.08362 28369 ft 419 kts 291°
2026-05-04 14:51 40.69133 -77.11989 28728 ft 418 kts 291°
2026-05-04 14:51 40.70084 -77.15603 29098 ft 416 kts 290°
2026-05-04 14:51 40.71029 -77.19201 29435 ft 415 kts 291°
2026-05-04 14:51 40.71956 -77.22734 29798 ft 415 kts 291°
2026-05-04 14:52 40.72896 -77.26321 30131 ft 413 kts 290°
2026-05-04 14:52 40.73828 -77.29893 30435 ft 412 kts 290°
2026-05-04 14:52 40.74753 -77.33461 30718 ft 411 kts 290°
2026-05-04 14:52 40.75675 -77.37025 30991 ft 410 kts 290°
2026-05-04 14:53 40.76597 -77.40579 31263 ft 409 kts 290°
2026-05-04 14:53 40.77518 -77.44133 31516 ft 409 kts 290°
2026-05-04 14:53 40.78435 -77.47678 31782 ft 408 kts 290°
2026-05-04 14:53 40.79353 -77.51225 31949 ft 409 kts 291°
2026-05-04 14:54 40.81193 -77.58352 31974 ft 411 kts 290°
2026-05-04 14:54 40.83036 -77.65513 31975 ft 413 kts 290°
2026-05-04 14:55 40.84873 -77.72698 31973 ft 413 kts 290°
2026-05-04 14:55 40.86713 -77.79890 31972 ft 413 kts 290°
2026-05-04 14:56 40.88542 -77.87083 31970 ft 413 kts 290°
2026-05-04 14:56 40.90368 -77.94287 31960 ft 413 kts 290°
2026-05-04 14:57 40.91929 -78.01596 31942 ft 416 kts 282°
2026-05-04 14:57 40.92862 -78.09148 31943 ft 416 kts 282°
2026-05-04 14:58 40.93795 -78.16710 31938 ft 417 kts 282°
2026-05-04 14:58 40.94724 -78.24276 31940 ft 417 kts 282°
2026-05-04 14:59 40.95656 -78.31851 31940 ft 417 kts 282°
2026-05-04 15:00 40.97031 -78.43217 31939 ft 417 kts 282°
2026-05-04 15:00 40.97938 -78.50801 31943 ft 417 kts 282°
2026-05-04 15:01 40.99297 -78.62173 31943 ft 417 kts 282°
2026-05-04 15:01 41.00201 -78.69761 31922 ft 417 kts 281°
2026-05-04 15:02 41.01101 -78.77354 31908 ft 418 kts 281°
2026-05-04 15:02 41.01996 -78.84953 31906 ft 418 kts 281°
2026-05-04 15:03 41.02879 -78.92565 31924 ft 418 kts 281°
2026-05-04 15:03 41.03757 -79.00172 31923 ft 418 kts 281°
2026-05-04 15:04 41.04635 -79.07767 31909 ft 418 kts 281°
2026-05-04 15:04 41.05511 -79.15374 31913 ft 418 kts 281°
2026-05-04 15:05 41.06383 -79.22986 31920 ft 418 kts 281°
2026-05-04 15:05 41.07244 -79.30605 31922 ft 418 kts 281°
2026-05-04 15:06 41.08094 -79.38207 31922 ft 418 kts 281°
2026-05-04 15:07 41.09372 -79.49639 31920 ft 418 kts 281°
2026-05-04 15:07 41.10223 -79.57260 31920 ft 418 kts 281°
2026-05-04 15:08 41.11059 -79.64887 31922 ft 418 kts 281°
2026-05-04 15:08 41.11889 -79.72525 31916 ft 418 kts 281°
2026-05-04 15:09 41.12717 -79.80154 31905 ft 418 kts 281°
2026-05-04 15:09 41.13547 -79.87798 31908 ft 418 kts 281°
2026-05-04 15:10 41.14786 -79.99259 31908 ft 419 kts 281°
2026-05-04 15:11 41.16003 -80.10744 31920 ft 419 kts 280°
2026-05-04 15:11 41.16807 -80.18354 31913 ft 419 kts 280°
2026-05-04 15:12 41.17609 -80.26018 31910 ft 420 kts 280°
2026-05-04 15:12 41.18402 -80.33695 31912 ft 420 kts 280°
2026-05-04 15:13 41.19194 -80.41382 31913 ft 420 kts 280°
2026-05-04 15:13 41.19985 -80.49064 31911 ft 420 kts 280°
2026-05-04 15:14 41.20774 -80.56754 31905 ft 420 kts 280°
2026-05-04 15:14 41.21548 -80.64445 31876 ft 420 kts 280°
2026-05-04 15:15 41.22327 -80.72141 31883 ft 420 kts 280°
2026-05-04 15:15 41.23092 -80.79832 31893 ft 420 kts 280°
2026-05-04 15:16 41.24231 -80.91378 31881 ft 420 kts 279°
2026-05-04 15:17 41.25362 -81.02927 31891 ft 420 kts 279°
2026-05-04 15:17 41.26476 -81.14468 31894 ft 420 kts 279°
2026-05-04 15:18 41.27221 -81.22158 31895 ft 420 kts 279°
2026-05-04 15:19 41.28310 -81.33650 31882 ft 420 kts 279°
2026-05-04 15:19 41.29390 -81.45195 31880 ft 420 kts 279°
2026-05-04 15:20 41.30111 -81.52898 31877 ft 420 kts 279°
2026-05-04 15:20 41.30826 -81.60604 31849 ft 420 kts 279°
2026-05-04 15:21 41.31534 -81.68305 31836 ft 420 kts 279°
2026-05-04 15:22 41.32582 -81.79875 31831 ft 420 kts 279°
2026-05-04 15:22 41.33624 -81.91451 31836 ft 420 kts 279°
2026-05-04 15:23 41.34316 -81.99170 31841 ft 420 kts 279°
2026-05-04 15:23 41.35003 -82.06897 31858 ft 420 kts 279°
2026-05-04 15:24 41.37041 -82.22141 31858 ft 418 kts 287°
2026-05-04 15:25 41.38585 -82.29600 31862 ft 418 kts 287°
2026-05-04 15:26 41.40901 -82.40801 31849 ft 418 kts 287°
2026-05-04 15:26 41.43200 -82.52019 31849 ft 419 kts 287°
2026-05-04 15:27 41.45494 -82.63259 31835 ft 419 kts 287°
2026-05-04 15:28 41.47766 -82.74461 31833 ft 419 kts 287°
2026-05-04 15:29 41.50036 -82.85725 31811 ft 420 kts 286°
2026-05-04 15:30 41.55302 -83.12086 31822 ft 420 kts 286°
2026-05-04 15:31 41.57541 -83.23406 31821 ft 421 kts 286°
2026-05-04 15:32 41.61005 -83.41089 31832 ft 421 kts 286°
2026-05-04 15:34 41.64690 -83.59997 31800 ft 420 kts 286°
2026-05-04 15:34 41.66887 -83.71352 31801 ft 420 kts 286°
2026-05-04 15:35 41.69043 -83.82716 31809 ft 420 kts 285°
2026-05-04 15:36 41.71055 -83.94132 31805 ft 420 kts 284°
2026-05-04 15:36 41.72381 -84.01755 31807 ft 421 kts 284°
2026-05-04 15:37 41.73713 -84.09328 31807 ft 421 kts 284°
2026-05-04 15:37 41.75052 -84.16952 31809 ft 421 kts 284°
2026-05-04 15:38 41.76382 -84.24576 31808 ft 420 kts 284°
2026-05-04 15:38 41.77716 -84.32256 31809 ft 420 kts 284°
2026-05-04 15:39 41.79037 -84.39878 31796 ft 420 kts 284°
2026-05-04 15:40 41.80989 -84.51272 31791 ft 420 kts 284°
2026-05-04 15:40 41.82300 -84.58951 31789 ft 420 kts 284°
2026-05-04 15:41 41.83604 -84.66574 31787 ft 419 kts 284°
2026-05-04 15:41 41.84901 -84.74198 31777 ft 419 kts 284°
2026-05-04 15:42 41.86192 -84.81835 31780 ft 420 kts 284°
2026-05-04 15:42 41.87477 -84.89471 31787 ft 420 kts 283°
2026-05-04 15:43 41.88758 -84.97101 31783 ft 419 kts 283°
2026-05-04 15:43 41.90026 -85.04731 31780 ft 418 kts 283°
2026-05-04 15:44 41.91289 -85.12358 31775 ft 418 kts 283°
2026-05-04 15:44 41.92542 -85.19936 31774 ft 418 kts 283°
2026-05-04 15:45 41.93802 -85.27617 31772 ft 419 kts 283°
2026-05-04 15:45 41.95054 -85.35254 31771 ft 418 kts 283°
2026-05-04 15:46 41.96303 -85.42892 31750 ft 419 kts 283°
2026-05-04 15:46 41.97550 -85.50534 31752 ft 419 kts 283°
2026-05-04 15:47 41.98785 -85.58192 31753 ft 419 kts 283°
2026-05-04 15:47 42.00011 -85.65853 31758 ft 419 kts 283°
2026-05-04 15:48 42.01231 -85.73470 31762 ft 419 kts 283°
2026-05-04 15:48 42.03059 -85.84969 31769 ft 419 kts 283°
2026-05-04 15:49 42.04281 -85.92644 31766 ft 419 kts 283°
2026-05-04 15:49 42.05490 -86.00313 31765 ft 419 kts 283°
2026-05-04 15:50 42.06691 -86.07977 31762 ft 419 kts 283°
2026-05-04 15:50 42.07885 -86.15647 31761 ft 419 kts 283°
2026-05-04 15:51 42.09079 -86.23323 31745 ft 419 kts 283°
2026-05-04 15:51 42.10270 -86.30992 31739 ft 419 kts 282°
2026-05-04 15:52 42.11452 -86.38667 31741 ft 419 kts 282°
2026-05-04 15:52 42.12629 -86.46360 31744 ft 419 kts 282°
2026-05-04 15:53 42.13795 -86.54054 31747 ft 419 kts 282°
2026-05-04 15:53 42.14949 -86.61752 31767 ft 419 kts 279°
2026-05-04 15:54 42.15482 -86.69569 31763 ft 419 kts 276°
2026-05-04 15:54 42.15938 -86.77371 31757 ft 418 kts 276°
2026-05-04 15:55 42.16392 -86.85179 31744 ft 417 kts 276°
2026-05-04 15:55 42.16838 -86.92970 31741 ft 417 kts 276°
2026-05-04 15:56 42.17275 -87.00765 31735 ft 417 kts 275°
2026-05-04 15:56 42.17701 -87.08573 31737 ft 417 kts 275°
2026-05-04 15:57 42.18133 -87.16373 31734 ft 417 kts 275°
2026-05-04 15:57 42.18554 -87.24120 31734 ft 417 kts 275°
2026-05-04 15:58 42.18967 -87.31919 31725 ft 417 kts 275°
2026-05-04 15:58 42.19371 -87.39708 31732 ft 416 kts 275°
2026-05-04 15:59 42.19769 -87.47484 31725 ft 415 kts 275°
2026-05-04 15:59 42.20172 -87.55251 31719 ft 415 kts 275°
2026-05-04 16:00 42.20572 -87.63007 31710 ft 415 kts 275°
2026-05-04 16:00 42.20958 -87.70764 31707 ft 414 kts 275°
2026-05-04 16:01 42.21341 -87.78517 31695 ft 414 kts 275°
2026-05-04 16:01 42.21722 -87.86265 31691 ft 414 kts 275°
2026-05-04 16:02 42.22072 -87.94022 31692 ft 414 kts 271°
2026-05-04 16:03 42.21166 -88.05636 31692 ft 416 kts 265°
2026-05-04 16:03 42.20453 -88.13371 31692 ft 416 kts 265°
2026-05-04 16:04 42.19741 -88.21103 31701 ft 416 kts 264°
2026-05-04 16:04 42.18633 -88.32700 31700 ft 416 kts 264°
2026-05-04 16:05 42.17890 -88.40437 31687 ft 416 kts 264°
2026-05-04 16:06 42.16772 -88.52066 31687 ft 417 kts 264°
2026-05-04 16:07 42.15256 -88.67603 31695 ft 419 kts 264°
2026-05-04 16:08 42.13709 -88.83165 31706 ft 419 kts 264°
2026-05-04 16:09 42.11759 -89.02612 31724 ft 419 kts 264°
2026-05-04 16:10 42.10163 -89.18169 31717 ft 419 kts 264°
2026-05-04 16:11 42.08558 -89.33714 31712 ft 419 kts 263°
2026-05-04 16:12 42.06096 -89.57004 31705 ft 419 kts 263°
2026-05-04 16:13 42.04431 -89.72511 31703 ft 419 kts 263°
2026-05-04 16:14 42.02752 -89.88012 31704 ft 419 kts 263°
2026-05-04 16:16 42.00636 -90.07323 31683 ft 419 kts 263°
2026-05-04 16:17 41.98475 -90.26674 31670 ft 419 kts 263°
2026-05-04 16:18 41.96855 -90.40905 31665 ft 420 kts 263°
2026-05-04 16:19 41.94627 -90.60265 31682 ft 421 kts 263°
2026-05-04 16:20 41.92373 -90.79665 31678 ft 421 kts 262°
2026-05-04 16:22 41.90063 -90.99087 31689 ft 422 kts 262°
2026-05-04 16:23 41.87263 -91.22385 31687 ft 421 kts 262°
2026-05-04 16:25 41.84412 -91.45657 31679 ft 421 kts 262°
2026-05-04 16:26 41.81024 -91.72766 31660 ft 421 kts 262°
2026-05-04 16:28 41.78579 -91.92052 31667 ft 421 kts 262°
2026-05-04 16:29 41.75092 -92.19058 31648 ft 420 kts 262°
2026-05-04 16:31 41.72555 -92.38386 31658 ft 423 kts 261°
2026-05-04 16:32 41.69458 -92.61641 31680 ft 423 kts 261°
2026-05-04 16:33 41.67370 -92.77160 31688 ft 424 kts 261°
2026-05-04 16:34 41.65785 -92.88797 31670 ft 424 kts 261°
2026-05-04 16:35 41.62578 -93.12048 31662 ft 424 kts 261°
2026-05-04 16:36 41.60951 -93.23657 31668 ft 424 kts 261°